TimeCDT,TemperatureF,Dew PointF,Humidity,Sea Level PressureIn,VisibilityMPH,Wind Direction,Wind SpeedMPH,Gust SpeedMPH,PrecipitationIn,Events,Conditions,WindDirDegrees,DateUTC
12:53 AM,48.0,27.0,44,29.78,10.0,SW,24.2,35.7,N/A,,Overcast,230,2013-10-26 05:53:00
1:53 AM,48.9,28.0,44,29.75,10.0,WSW,18.4,34.5,N/A,,Overcast,240,2013-10-26 06:53:00
2:53 AM,48.9,28.0,44,29.74,10.0,WSW,19.6,34.5,N/A,,Overcast,240,2013-10-26 07:53:00
3:53 AM,46.9,28.9,50,29.72,10.0,WSW,19.6,31.1,N/A,,Mostly Cloudy,250,2013-10-26 08:53:00
4:53 AM,45.0,30.0,56,29.73,10.0,WSW,15.0,20.7,N/A,,Clear,240,2013-10-26 09:53:00
5:53 AM,46.0,30.9,56,29.73,10.0,WSW,13.8,26.5,N/A,,Mostly Cloudy,250,2013-10-26 10:53:00
6:53 AM,45.0,32.0,60,29.73,10.0,West,13.8,-,N/A,,Partly Cloudy,260,2013-10-26 11:53:00
7:53 AM,44.1,33.1,65,29.75,10.0,West,11.5,-,N/A,,Scattered Clouds,260,2013-10-26 12:53:00
8:53 AM,46.9,35.1,63,29.77,10.0,WNW,10.4,-,N/A,,Clear,300,2013-10-26 13:53:00
9:53 AM,48.9,36.0,61,29.79,10.0,NW,16.1,24.2,N/A,,Scattered Clouds,320,2013-10-26 14:53:00
10:53 AM,48.9,34.0,56,29.82,10.0,NNW,16.1,21.9,N/A,,Mostly Cloudy,340,2013-10-26 15:53:00
11:53 AM,50.0,32.0,50,29.84,10.0,NNW,18.4,27.6,N/A,,Mostly Cloudy,340,2013-10-26 16:53:00
12:53 PM,48.0,30.9,52,29.86,10.0,NW,15.0,21.9,N/A,,Mostly Cloudy,310,2013-10-26 17:53:00
1:53 PM,50.0,28.9,44,29.88,10.0,NNW,15.0,24.2,0.00,,Mostly Cloudy,330,2013-10-26 18:53:00
2:53 PM,50.0,30.0,46,29.91,10.0,NW,17.3,23.0,N/A,,Mostly Cloudy,320,2013-10-26 19:53:00
3:53 PM,48.9,30.0,48,29.93,10.0,NW,15.0,25.3,N/A,,Scattered Clouds,320,2013-10-26 20:53:00
4:53 PM,46.9,28.9,50,29.96,10.0,NW,17.3,27.6,N/A,,Mostly Cloudy,310,2013-10-26 21:53:00
5:53 PM,46.0,30.0,54,29.99,10.0,NW,10.4,-,N/A,,Overcast,320,2013-10-26 22:53:00
6:53 PM,44.1,28.9,55,30.01,10.0,NNW,8.1,-,N/A,,Overcast,330,2013-10-26 23:53:00
7:53 PM,42.1,30.9,65,30.04,10.0,NNW,3.5,-,N/A,,Overcast,340,2013-10-27 00:53:00
8:53 PM,42.1,30.0,62,30.04,10.0,North,5.8,-,N/A,,Overcast,350,2013-10-27 01:53:00
9:53 PM,42.1,30.0,62,30.06,10.0,Calm,Calm,-,N/A,,Overcast,0,2013-10-27 02:53:00
10:53 PM,39.0,30.0,70,30.05,10.0,Calm,Calm,-,N/A,,Overcast,0,2013-10-27 03:53:00
11:53 PM,36.0,30.0,79,30.05,10.0,Calm,Calm,-,N/A,,Overcast,0,2013-10-27 04:53:00